Showing default

KUIPER-00075, 64822

Orbit data source: Space-Track

KUIPER-00075, 64822 is a payload satellite owned by Kuiper Systems (US) in LEO that was launched on Wed, 16 Jul 2025 UTC via an FALCON 9 launch vehicle from the Air Force Eastern Test Range (AFETR). Payload-class satellites include a variety of spacecraft equipped with specific instruments for various scientific and technological missions. These include communications satellites like Starlink; space stations such as the ISS; scientific satellites like the Hubble; Earth observation satellites from companies like Planet Labs, Umbra, and HawkEye 360; GPS; miniature CubeSats for education and research; and military/defense satellites.

Loading next visibility...
Identifier
64822, 2025-151G
Orbit
LEO
Country
Flag of USUS
Related business
Manufacturer
Kuiper Systems
Mission
Operational Commercial Communications
Bus & Motor
KUIPER, Unknown motor
Mass
~490 kg wet, ~490 kg dry
Launch date (UTC)
2025-07-16 (11 months ago)
Launch vehicle
FALCON 9
Launch site
Air Force Eastern Test Range (AFETR)
Object type
Payload
Rocket body
Debris
Shape & HBR
Box + 2 Pan, 3.4 m
Radar Cross Section
2.326 m², Large (>1 m²)

Expand to show TLE details & history
Last TLE update: 1 day ago

TLE from 1 day ago
0 KUIPER-00075
1 64822U 25151G   26166.11702216  .00038933  00000-0  82840-3 0  9998
2 64822  51.8680 106.5483 0002121 273.4977  86.5770 15.44581930 51441
Epoch: 2026-06-15T02:48Z
TLE epoch observation values (Epoch: 2026-06-15T02:48:30.714Z)
Latitude
-0.00004°
Longitude
161.01228°
Altitude
433.286 km
Speed
7.653 km/s
True Right ascension
07h 06m 11s
True Declination
0° 00' 00"
Sunlit
Object was in daylight at epoch
Visualization orbit readout
Latitude
Unknown
Longitude
Unknown
Altitude
Unknown
Speed
Unknown
Apparent Right ascension
Unknown
Apparent Declination
Unknown
Sunlit
N/A
Visualization observer readout
Local Sidereal Time
14:42:08
Azimuth
Unknown
Elevation
Unknown
Doppler factor
Unknown
Orbital elements
Apogee altitude
434.521 km
Perigee altitude
431.631 km
Semi-major axis
6,811.213 km
Eccentricity
0.00021
Inclination
51.868°
RAAN
106.5483°
Arg. of periapsis
273.4977°
True anomaly
86.60126°
Mean anomaly
86.577°
Eccentric anomaly
86.58913°
Mean motion
3.86106 °/min
Orbital period
93.24 mins
BSTAR
0.0008284
Loading maneuver chart data...
Computing Atmospheric mass density...
Loading historical data...
Loading historical data...
Loading historical data...
Loading historical data...
Loading historical data...
Loading historical data...
Loading historical data...

Documentation

Showing up to 5 results
|